Current weather by "City, St" or "zip code"  
 
Advertise Here

Current Conditions: Scott Municipal Airport, TN

Overcast


61.0 F

Last Updated on Feb 28 2021, 5:55 am EST
Humidity: 88%
Wind Speed: S 15.0 G 26.5 mph
Barometer 30.03 in
Dewpoint: 57.2 F
Visibility: 10.00 mi
Precip: --
Heat Index: NA
Wind Chill: 59 F
Current conditions at:

Scott Municipal Airport, TN (KSCX)

Lat: 36.45569 Lon: 84.58575

Local Radar Image active severe weather and emergency alerts image image weather storm and storm spotter reports image weather observation monitoring service image
Local
Radar
Active
Alerts
Storm Reports Obs
Monitoring

Sign-up For Email & Text Message Weather Alert Notification Services


Advertise Here

Observation History for Scott Municipal Airport, TN


Time Wind
(mph)
Vis
(mi)
Weather Precip (in) Temperature (F) Relative
Humidity
Wind
Chill
(F)
Heat
Index
(F)
Pressure
Air Dwpt altimeter
(in)
sea level
(mb)
Rmks
5:55 am EST S 15.0 G 26.5 10.00 Overcast -- 61.0 57.2 88% 59 NA 30.03 M
4:55 am EST S 11.5 G 18.4 10.00 Overcast -- 59.0 57.2 94% 57 NA 30.03 M
3:55 am EST S 16.1 G 23.0 10.00 Overcast -- 61.0 57.2 88% 59 NA 30.05 M
2:55 am EST S 16.1 G 25.3 10.00 Overcast -- 61.0 57.2 88% 59 NA 30.05 M
1:55 am EST S 13.8 10.00 Overcast -- 61.0 57.2 88% 59 NA 30.07 M
12:55 am EST S 10.4 G 17.3 10.00 Overcast -- 61.0 57.2 88% 60 NA 30.09 M
11:55 pm EST S 9.2 10.00 Overcast -- 59.0 57.2 94% 57 NA 30.10 M
10:55 pm EST S 8.1 6.00 Fog/Mist -- 59.0 59.0 100% 58 NA 30.12 M
9:55 pm EST S 8.1 2.50 Fog/Mist 00.62 59.0 59.0 100% 58 NA 30.15 M
8:55 pm EST N 0.0 6.00 Fog/Mist -- 57.0 57.2 100% NA NA 30.11 M
7:55 pm EST N 0.0 0.25 Fog -- 57.0 57.2 100% NA NA 30.14 M
6:55 pm EST N 0.0 10.00 Overcast -- 57.0 57.2 100% NA NA 30.13 M
5:55 pm EST S 4.6 10.00 Overcast -- 57.0 57.2 100% 57 NA 30.12 M
4:55 pm EST S 3.5 8.00 Overcast -- 57.0 57.2 100% NA NA 30.12 M
3:55 pm EST SE 3.5 9.00 Overcast -- 57.0 57.2 100% NA NA 30.11 M
2:50 pm EST S 5.8 6.00 Fog/Mist -- 57.0 57.2 100% 56 NA 30.12 M
1:55 pm EST S 4.6 3.00 Fog/Mist -- 57.0 57.2 100% 57 NA 30.11 M
12:55 pm EST N 0.0 6.00 Fog/Mist -- 57.0 57.2 100% NA NA 30.14 M
11:55 am EST S 3.5 8.00 Overcast -- 57.0 55.4 94% NA NA 30.14 M
10:55 am EST N 0.0 4.00 Fog/Mist -- 55.0 55.4 100% NA NA 30.13 M
9:55 am EST S 3.5 10.00 Overcast -- 55.0 55.4 100% NA NA 30.11 M
8:55 am EST S 5.8 8.00 Overcast -- 55.0 53.6 94% 54 NA 30.09 M
7:55 am EST S 9.2 6.00 Fog/Mist -- 55.0 53.6 94% 52 NA 30.05 M

Regional Weather Observation


Scott Municipal Airport, TN (KSCX)

Overcast
61.0 F

Williamsburg-Whitley County Airport, KY (KBYL)

Overcast
64.0 F

Jacksboro Campbell County Airport, TN (KJAU)

Overcast
61.0 F

Livingston Municipal Airport, TN (K8A3)

Overcast
64.0 F

Oak Ridge, TN (KOQT)

Fog/Mist
55.0 F

Somerset, Somerset-Pulaski County - J.T. Wilson Field Airport, KY (KSME)

Mostly Cloudy
61.0 F
Advertise Here

Advertise Here